Wetbulb
77.02 76.49 74.56 68.28 57.87 58.50 53.78 56.82 61.37 59.06 59.91 64.35 65.99 63.82 62.54 64.24 61.49 55.42 70.34 72.31 73.14 73.08 74.83 75.64 77.60 78.17 77.77 78.07 78.33 78.68 78.38 78.85 78.91 78.73 78.94 78.74 78.00 78.15 77.81 77.74 76.78 76.90 77.19 77.42 76.90 77.38 77.29 77.23 76.07
74.24 73.17 66.97 62.51 54.49 49.99 51.90 59.18 59.10 61.09 63.68 64.98 65.89 64.81 63.55 62.49 67.11 68.56 69.89 72.79 73.61 73.79 74.55 75.34 77.24 77.92 77.66 78.17 78.79 78.57 78.24 77.77 78.46 78.61 78.32 78.24 78.18 77.94 77.38 76.90 76.29 75.99 76.07 76.72 76.91 77.13 77.28 77.26 76.83
72.02 71.78 60.72 57.94 55.66 50.97 52.09 59.58 60.34 64.24 65.83 64.90 64.38 66.34 65.22 63.74 68.27 68.84 72.29 73.54 74.09 73.78 74.48 75.31 77.81 78.02 77.52 77.76 78.44 78.56 78.52 78.53 78.78 78.54 78.64 78.25 77.60 77.23 76.49 76.21 76.21 76.07 75.71 76.32 77.15 76.38 76.73 77.10 76.88
69.32 66.12 63.95 56.74 53.80 58.56 59.54 61.07 63.75 63.52 64.65 66.75 65.91 62.99 66.98 69.43 68.83 71.63 73.52 74.06 73.60 73.83 75.01 76.79 77.56 77.05 77.58 77.44 78.19 78.07 78.52 79.01 79.38 78.88 79.01 78.27 78.71 77.92 77.75 77.54 77.34 76.24 75.74 75.79 76.15 76.50 76.79 76.76 76.43
68.01 62.25 54.48 54.30 56.06 60.05 62.74 63.27 65.04 62.21 64.20 65.05 65.87 62.24 64.43 69.28 72.17 72.97 73.23 73.81 73.31 73.14 74.38 75.36 78.01 77.80 77.73 77.82 78.28 78.74 78.49 78.02 78.68 79.05 78.65 78.02 77.70 77.51 77.50 77.37 77.11 76.94 76.91 76.90 76.74 76.28 75.88 75.92 75.65
61.91 60.28 52.21 49.87 54.40 60.91 62.56 64.41 64.22 64.19 65.03 65.18 63.98 62.85 64.68 71.20 71.22 72.52 73.37 73.20 73.71 73.30 74.44 74.88 76.94 77.67 78.03 77.74 77.75 78.05 77.48 77.64 78.00 78.50 78.42 78.24 77.97 77.04 76.85 76.65 76.49 76.10 75.91 75.68 75.59 75.45 75.17 74.96 75.04
60.13 57.22 53.68 53.33 55.61 58.82 62.32 65.08 62.82 63.73 64.03 64.34 66.43 61.44 65.48 69.53 71.79 72.67 72.98 73.21 73.26 73.80 73.88 73.77 74.39 76.11 77.58 78.45 77.74 77.39 77.26 77.61 77.68 77.76 77.59 77.49 76.71 76.65 76.54 76.46 76.46 76.48 75.93 75.19 75.18 75.12 74.89 75.00 74.40
62.80 58.30 54.11 54.12 54.56 56.81 63.84 64.56 66.04 64.51 64.30 68.22 67.57 61.43 62.56 67.78 71.48 71.38 72.40 72.59 72.66 73.17 73.41 73.29 73.77 74.43 74.90 75.94 77.56 76.92 77.07 77.55 77.39 77.15 76.97 77.03 76.49 75.96 75.77 76.54 76.26 75.77 75.66 75.60 74.91 75.01 75.30 74.99 74.37
64.17 53.20 50.53 53.96 55.99 57.82 64.38 61.76 65.33 66.58 66.05 67.48 67.61 65.66 66.96 70.13 70.18 70.62 70.94 71.33 72.19 72.58 72.78 73.02 73.35 73.31 74.43 74.64 75.78 77.07 76.89 76.80 77.09 76.47 76.59 75.69 71.26 69.81 71.61 74.57 75.33 75.16 75.02 75.02 75.33 75.17 74.87 75.41 75.11
57.71 50.65 52.83 58.66 59.98 59.19 62.84 62.06 62.34 64.66 63.97 64.21 64.71 67.41 68.94 68.93 68.74 68.78 68.86 68.40 69.69 70.77 71.91 72.71 72.72 72.77 73.69 74.73 74.32 74.19 73.97 74.08 73.50 73.53 72.24 70.99 70.50 68.73 70.77 73.82 74.52 74.62 74.66 74.69 74.74 74.44 74.63 74.89 74.06
57.92 53.71 57.36 60.32 62.33 63.24 61.37 61.33 64.49 62.31 61.13 63.76 63.21 65.24 67.24 67.30 67.83 68.18 68.74 68.78 68.83 69.98 71.81 72.41 72.64 72.71 73.59 73.75 73.20 73.17 73.57 72.77 72.49 72.34 71.39 71.02 70.49 69.41 69.15 69.25 70.04 70.38 73.26 72.34 72.38 71.54 71.34 71.12 72.61
55.27 59.11 59.73 62.96 64.33 62.87 60.43 62.81 63.46 64.27 64.20 66.84 66.31 67.06 66.78 66.74 66.96 67.69 67.98 68.94 69.73 71.01 71.49 72.13 72.66 72.53 73.09 73.19 72.92 72.71 73.13 72.48 72.27 71.61 71.14 70.55 69.77 69.19 68.18 67.83 67.92 68.22 68.93 69.92 69.81 69.00 69.47 69.95 70.73
53.90 57.60 59.69 63.80 63.46 62.42 63.55 61.79 62.26 63.18 66.98 67.66 67.36 67.63 66.56 66.70 67.40 68.33 68.84 69.03 69.19 69.37 71.50 71.77 72.51 72.33 72.73 72.37 72.65 72.90 72.54 71.96 71.68 70.96 71.02 71.64 70.08 69.22 68.83 67.67 67.30 67.33 68.21 68.12 68.17 68.13 68.83 69.21 69.87
56.60 58.57 57.63 62.35 62.68 62.61 61.52 61.36 62.75 64.56 67.35 66.58 66.37 66.20 67.09 67.33 67.77 68.18 68.33 68.30 68.86 69.50 70.26 71.84 72.08 72.59 72.66 72.11 72.06 72.53 72.57 71.48 70.40 70.10 69.42 70.65 71.10 70.46 69.36 68.07 67.70 67.26 67.41 67.32 67.63 67.95 68.01 68.52 69.33
55.88 54.88 55.12 59.80 61.58 61.42 61.81 57.92 58.62 65.26 67.03 65.55 65.79 65.84 66.69 67.24 68.39 68.25 69.15 68.81 69.35 70.15 70.25 70.45 71.63 72.48 72.06 71.78 71.56 71.39 71.26 71.15 70.04 69.70 69.89 70.36 70.73 70.48 70.75 69.54 69.45 69.48 69.79 69.21 68.56 68.58 69.08 69.33 70.43
52.64 53.14 49.44 55.07 60.38 61.48 59.54 51.83 59.56 65.05 65.07 64.69 65.75 66.04 66.45 66.88 67.68 68.57 69.57 70.07 70.43 70.60 70.55 71.31 72.33 72.14 71.92 71.61 71.79 71.41 71.18 71.16 71.10 70.06 70.15 70.81 70.84 71.29 71.03 70.96 70.40 70.35 70.60 70.08 70.00 69.74 69.74 69.47 69.97
49.80 45.61 49.40 52.28 59.60 59.98 57.19 53.16 57.70 64.79 64.11 63.44 65.06 65.76 66.31 66.58 67.52 68.89 69.85 70.41 70.40 70.41 70.59 70.87 71.78 71.87 71.68 71.69 71.94 71.93 71.70 71.01 70.54 70.20 70.33 70.62 71.20 71.53 71.14 71.10 70.63 71.03 70.91 70.52 69.99 69.98 69.58 69.15 69.44
46.34 45.56 48.86 49.86 54.22 58.65 55.42 52.47 60.82 63.51 63.61 63.11 63.38 64.12 65.16 66.00 67.01 68.66 69.49 70.53 70.48 70.40 70.45 70.34 71.24 71.16 70.86 70.93 71.57 71.19 70.67 69.59 69.97 69.68 69.90 70.73 71.12 71.25 71.23 71.73 71.03 71.46 71.09 70.69 70.37 69.63 70.20 70.03 69.95
49.07 45.78 47.08 50.43 55.14 54.88 54.15 52.30 53.24 62.62 63.20 62.54 62.73 63.09 63.54 64.38 66.51 67.29 68.97 70.31 69.98 69.49 69.23 69.54 69.77 69.92 70.20 70.08 69.99 69.63 69.76 70.13 69.65 69.88 70.05 70.01 70.62 71.38 71.55 70.60 71.21 71.61 70.99 70.77 70.78 70.35 69.64 69.34 70.23
47.84 45.50 45.72 50.13 52.74 50.45 47.61 50.12 55.68 61.36 62.50 63.27 63.09 63.01 63.76 64.31 64.51 65.17 66.63 68.43 68.96 68.26 68.94 69.40 69.72 69.59 70.23 70.52 70.50 70.43 69.99 70.35 71.18 71.23 70.82 70.57 70.50 70.87 70.91 70.69 70.39 70.26 69.99 70.39 70.57 70.26 69.52 69.80 70.05
44.25 45.43 45.59 46.86 48.95 49.40 48.68 47.39 52.03 56.53 60.16 61.95 63.82 64.02 64.13 64.11 63.65 64.82 65.54 67.03 67.46 67.44 68.13 69.25 69.71 69.79 70.18 70.95 70.10 70.33 70.31 70.38 69.84 70.06 70.91 70.98 70.68 70.63 70.47 70.41 70.28 69.84 69.72 69.43 70.46 70.64 69.78 68.55 69.40
43.35 49.10 48.89 48.05 44.26 41.87 46.87 39.44 48.15 51.69 54.86 59.22 59.46 63.19 63.38 64.07 64.85 65.55 66.93 65.94 66.37 67.40 69.22 69.87 69.95 70.02 70.71 70.77 70.19 69.78 69.42 68.73 69.63 69.67 70.17 70.80 71.42 70.90 71.14 70.86 70.32 69.41 69.14 69.73 70.41 70.81 70.30 69.40 68.09
46.71 51.41 48.75 48.29 43.29 41.17 44.35 42.34 46.11 50.83 52.33 57.20 60.42 61.84 63.12 64.12 65.70 66.34 67.17 67.73 68.38 68.72 68.74 69.50 69.81 70.84 70.89 71.16 70.80 70.31 69.88 69.65 70.10 70.53 70.33 70.12 70.48 71.02 71.27 71.52 70.93 70.87 69.99 69.24 69.85 70.59 70.05 69.99 69.37
50.02 47.27 45.82 44.50 41.16 37.57 41.70 43.39 45.63 48.58 51.79 55.12 60.35 62.04 63.58 63.44 63.94 63.69 65.67 65.47 65.61 68.36 69.44 69.92 70.20 69.92 69.85 69.19 68.27 67.69 68.03 69.24 69.97 70.26 69.27 70.30 70.52 70.47 71.07 71.01 71.00 71.13 70.57 70.22 69.38 69.77 70.38 70.54 69.72
46.05 42.07 37.57 38.10 39.00 38.93 41.27 44.03 45.90 51.89 54.40 56.22 57.95 60.33 62.81 64.07 63.80 64.63 64.82 64.38 65.23 66.18 71.04 69.67 69.56 68.23 66.80 66.68 66.49 66.22 66.14 67.87 68.82 69.69 70.71 70.04 70.78 70.90 71.01 70.98 70.65 70.62 70.66 70.35 70.03 69.85 69.92 69.52 69.72
43.38 42.47 38.18 34.34 34.37 37.66 43.66 41.79 47.88 55.41 59.19 59.56 61.09 63.81 65.23 64.21 64.26 65.29 67.44 67.27 66.72 66.08 68.23 71.23 67.66 65.26 65.12 65.47 65.71 65.30 65.40 65.60 66.54 68.72 70.79 71.00 71.12 71.34 71.96 72.13 71.68 70.66 70.81 70.59 70.32 70.10 70.12 69.88 69.11
42.82 40.45 42.97 38.38 38.80 40.48 42.84 47.14 52.25 56.66 56.98 59.57 62.80 63.79 64.25 64.83 64.83 66.22 67.72 68.36 67.76 66.93 69.01 67.73 66.50 65.13 65.29 66.34 65.26 65.17 65.50 65.75 65.83 67.82 69.33 71.50 71.84 71.39 71.67 72.33 72.04 71.11 71.20 71.55 71.11 70.38 70.37 70.77 70.24
46.77 45.81 41.48 39.79 37.53 36.53 41.25 43.76 45.04 52.09 54.57 57.78 60.54 62.52 63.93 63.76 64.05 66.58 67.50 67.71 68.19 68.41 67.19 66.56 66.15 65.32 66.07 65.74 66.06 65.44 64.59 65.81 68.04 69.44 72.27 72.51 72.33 71.66 71.62 71.73 70.51 70.19 69.62 68.61 68.70 68.57 69.87 70.37 70.21
45.47 44.09 41.58 41.43 40.91 37.92 37.21 41.98 49.44 52.33 55.41 56.89 60.66 63.39 63.96 62.71 62.96 65.29 66.92 67.57 67.46 69.11 69.39 69.08 67.70 67.88 67.84 67.47 66.48 65.92 65.75 66.42 68.38 70.07 71.92 72.51 72.75 71.32 71.46 70.83 70.28 69.22 69.15 68.39 67.40 68.73 69.71 69.63 70.48
47.89 45.18 43.59 41.05 39.50 40.05 39.87 42.95 52.73 53.54 56.62 58.21 60.43 61.19 60.72 62.61 62.53 64.70 65.40 66.55 66.61 65.92 68.04 69.49 69.38 69.20 69.60 69.41 68.18 68.12 68.54 69.21 70.26 71.30 71.68 72.62 72.93 71.41 70.33 70.40 70.32 68.69 68.58 67.76 67.60 68.42 70.83 70.63 69.22
MSLP
1006.54 1006.90 1007.33 1007.38 1008.05 1007.97 1008.31 1008.00 1007.19 1006.78 1006.84 1007.00 1007.36 1008.03 1008.92 1009.81 1010.54 1011.65 1011.62 1011.75 1011.85 1012.31 1012.49 1012.70 1013.10 1013.40 1013.66 1013.91 1014.17 1014.45 1014.77 1015.01 1015.25 1015.50 1015.62 1015.73 1015.97 1016.12 1016.28 1016.43 1016.49 1016.71 1016.84 1017.12 1017.30 1017.44 1017.51 1017.73 1017.88
1006.50 1006.83 1007.38 1007.63 1008.41 1008.68 1008.38 1007.81 1007.39 1006.87 1007.04 1007.14 1007.54 1008.43 1009.21 1010.21 1010.75 1011.25 1011.70 1012.01 1012.06 1012.44 1012.75 1013.00 1013.26 1013.64 1014.02 1014.23 1014.46 1014.76 1015.04 1015.32 1015.51 1015.74 1015.95 1016.11 1016.13 1016.27 1016.50 1016.50 1016.69 1016.98 1017.23 1017.38 1017.54 1017.70 1017.73 1017.86 1018.09
1006.43 1006.43 1007.27 1007.93 1008.80 1008.85 1008.14 1007.74 1007.33 1006.92 1006.78 1006.87 1007.80 1008.57 1009.63 1010.58 1011.03 1011.64 1011.64 1012.17 1012.35 1012.80 1013.00 1013.26 1013.59 1013.87 1014.19 1014.47 1014.64 1014.93 1015.18 1015.38 1015.62 1015.81 1015.99 1016.22 1016.34 1016.54 1016.86 1016.96 1016.91 1017.18 1017.38 1017.56 1017.79 1017.92 1017.97 1018.19 1018.34
1006.29 1006.81 1007.73 1008.16 1008.73 1008.20 1007.99 1007.73 1007.22 1007.02 1007.00 1007.45 1008.15 1009.38 1010.36 1010.64 1011.30 1011.63 1012.10 1012.52 1012.88 1013.18 1013.24 1013.54 1013.83 1014.09 1014.42 1014.72 1014.93 1015.19 1015.40 1015.54 1015.71 1015.89 1016.06 1016.33 1016.30 1016.51 1016.89 1017.08 1017.24 1017.30 1017.59 1017.93 1018.12 1018.22 1018.23 1018.37 1018.52
1006.49 1007.33 1008.45 1008.96 1008.58 1007.85 1007.39 1007.39 1007.20 1007.27 1007.57 1008.12 1008.40 1010.40 1011.18 1011.49 1011.52 1012.00 1012.44 1012.79 1013.05 1013.41 1013.49 1013.77 1014.02 1014.28 1014.56 1014.86 1015.09 1015.31 1015.52 1015.73 1015.80 1015.98 1016.16 1016.39 1016.62 1016.71 1017.23 1017.31 1017.37 1017.51 1017.73 1018.07 1018.26 1018.30 1018.40 1018.50 1018.63
1006.98 1007.64 1008.54 1008.82 1008.32 1007.59 1006.98 1006.77 1007.11 1007.51 1007.88 1008.46 1009.19 1010.28 1011.69 1011.87 1011.83 1012.41 1012.74 1013.04 1013.16 1013.46 1013.67 1013.94 1014.24 1014.52 1014.75 1014.96 1015.21 1015.49 1015.73 1015.88 1016.00 1016.11 1016.26 1016.58 1016.62 1016.92 1017.24 1017.55 1017.44 1017.69 1017.95 1018.21 1018.39 1018.45 1018.53 1018.65 1018.75
1007.20 1007.99 1008.33 1008.11 1007.84 1007.30 1006.66 1006.36 1006.86 1007.42 1007.95 1008.42 1008.96 1010.51 1011.82 1011.99 1012.29 1012.53 1012.98 1013.32 1013.50 1013.62 1013.93 1014.16 1014.44 1014.71 1014.99 1015.22 1015.46 1015.65 1015.84 1016.05 1016.21 1016.39 1016.53 1016.62 1017.05 1017.12 1017.31 1017.54 1017.68 1017.61 1017.96 1018.23 1018.43 1018.55 1018.65 1018.73 1018.80
1007.00 1007.80 1007.98 1007.68 1007.44 1006.92 1006.34 1006.30 1006.55 1007.10 1007.76 1008.08 1008.57 1010.11 1011.47 1011.81 1012.36 1012.84 1013.31 1013.66 1013.85 1014.02 1014.12 1014.37 1014.65 1014.87 1015.07 1015.36 1015.67 1015.98 1016.11 1016.15 1016.37 1016.64 1016.85 1016.59 1016.94 1017.29 1017.54 1017.64 1017.77 1017.72 1017.92 1018.16 1018.36 1018.46 1018.63 1018.72 1018.86
1006.77 1007.63 1007.73 1007.06 1006.75 1006.28 1006.08 1006.25 1006.60 1006.88 1007.50 1008.04 1008.72 1009.51 1010.16 1011.55 1012.37 1012.98 1013.49 1013.93 1014.08 1014.25 1014.37 1014.41 1014.73 1015.02 1015.24 1015.44 1015.53 1015.77 1016.11 1016.36 1016.52 1016.75 1016.93 1017.32 1017.71 1017.64 1017.74 1017.94 1017.76 1017.86 1018.00 1018.17 1018.28 1018.41 1018.46 1018.54 1018.73
1006.74 1007.26 1006.58 1005.72 1005.54 1005.74 1005.88 1006.08 1006.49 1007.13 1007.70 1008.74 1009.37 1009.98 1010.72 1011.61 1012.32 1012.78 1013.27 1013.62 1014.04 1014.33 1014.50 1014.71 1014.89 1015.18 1015.34 1015.43 1015.67 1015.89 1016.09 1016.40 1016.73 1016.84 1017.24 1017.69 1018.00 1018.07 1017.96 1017.86 1017.89 1017.94 1018.11 1018.19 1018.32 1018.46 1018.52 1018.52 1018.82
1006.41 1006.01 1005.45 1004.94 1005.01 1005.29 1005.64 1006.07 1006.65 1007.29 1007.99 1008.49 1009.43 1010.35 1011.06 1011.83 1012.53 1012.92 1013.37 1013.53 1013.70 1014.10 1014.62 1014.86 1015.13 1015.22 1015.33 1015.47 1015.82 1016.04 1016.19 1016.66 1016.88 1016.92 1017.26 1017.80 1017.93 1017.93 1018.06 1018.17 1018.26 1018.25 1018.25 1018.40 1018.53 1018.67 1018.82 1018.76 1018.85
1005.70 1004.83 1004.71 1004.33 1004.78 1005.32 1005.52 1006.15 1006.74 1007.04 1007.41 1007.79 1008.93 1009.87 1011.07 1011.84 1012.21 1012.61 1013.04 1013.49 1013.88 1014.13 1014.46 1014.81 1014.96 1015.27 1015.40 1015.54 1015.76 1016.00 1016.21 1016.38 1016.82 1016.95 1017.24 1017.63 1017.90 1018.05 1018.11 1018.19 1018.42 1018.56 1018.55 1018.53 1018.76 1018.86 1018.88 1018.76 1018.81
1004.92 1004.53 1004.08 1004.29 1004.67 1005.11 1005.50 1006.24 1006.66 1007.10 1007.66 1008.42 1009.56 1010.34 1010.96 1011.39 1011.84 1012.47 1012.92 1013.44 1013.79 1014.10 1014.28 1014.62 1014.96 1015.25 1015.35 1015.74 1015.82 1015.83 1015.95 1016.17 1016.46 1016.86 1017.26 1017.56 1017.85 1017.97 1018.12 1018.25 1018.37 1018.58 1018.61 1018.58 1018.77 1018.92 1018.93 1018.78 1018.64
1004.34 1004.05 1004.25 1004.34 1004.73 1005.23 1005.97 1006.36 1006.59 1007.22 1007.84 1008.87 1009.44 1010.32 1011.00 1011.23 1011.49 1012.21 1012.59 1012.86 1013.22 1013.64 1014.09 1014.44 1014.64 1014.82 1015.09 1015.58 1015.62 1015.72 1015.85 1016.17 1016.49 1016.86 1017.09 1017.41 1017.64 1017.84 1017.95 1018.03 1018.25 1018.41 1018.52 1018.53 1018.64 1018.79 1018.82 1018.78 1018.61
1004.15 1004.19 1004.45 1004.53 1004.82 1005.34 1005.85 1006.67 1006.81 1007.26 1007.90 1008.70 1009.56 1009.93 1010.67 1011.23 1011.56 1011.18 1011.33 1011.98 1012.42 1012.98 1013.37 1013.97 1014.26 1014.45 1015.00 1015.37 1015.45 1015.67 1015.77 1015.99 1016.28 1016.48 1016.93 1017.24 1017.47 1017.67 1017.70 1017.77 1017.99 1018.07 1018.23 1018.42 1018.45 1018.57 1018.64 1018.58 1018.30
1004.65 1004.70 1005.21 1004.58 1005.01 1005.37 1005.82 1006.42 1006.65 1007.15 1007.93 1008.68 1009.31 1009.77 1010.21 1010.49 1010.60 1011.05 1011.19 1011.46 1011.95 1012.47 1012.83 1013.29 1013.71 1014.25 1014.68 1015.02 1015.32 1015.67 1015.75 1015.76 1016.18 1016.44 1016.71 1016.99 1017.23 1017.45 1017.48 1017.50 1017.55 1017.77 1017.92 1018.14 1018.21 1018.34 1018.48 1018.51 1018.39
1005.91 1005.88 1005.74 1005.12 1005.05 1005.32 1006.12 1006.50 1006.51 1007.06 1007.82 1008.51 1009.01 1009.41 1009.79 1010.16 1010.39 1010.60 1010.75 1011.20 1011.58 1012.05 1012.62 1012.96 1013.20 1013.47 1014.08 1014.99 1015.26 1015.44 1015.62 1015.73 1015.58 1016.02 1016.49 1016.53 1016.75 1017.01 1017.09 1017.13 1017.25 1017.56 1017.76 1017.76 1018.01 1018.07 1018.23 1018.31 1018.22
1006.71 1006.38 1005.75 1005.27 1005.15 1005.47 1006.23 1006.43 1006.96 1007.40 1007.59 1007.89 1008.53 1008.98 1009.45 1009.43 1009.40 1009.80 1010.13 1010.80 1011.49 1011.93 1012.18 1012.45 1012.94 1013.38 1014.08 1014.62 1014.76 1015.16 1015.47 1015.24 1015.73 1015.84 1016.02 1016.12 1016.32 1016.46 1016.56 1016.73 1016.91 1017.11 1017.43 1017.51 1017.69 1017.85 1017.88 1017.95 1017.94
1006.21 1006.19 1005.95 1005.07 1004.86 1005.32 1006.13 1006.76 1007.00 1007.38 1007.76 1007.96 1008.21 1008.51 1008.88 1008.77 1008.74 1009.37 1009.86 1010.32 1010.81 1011.28 1011.83 1012.37 1012.77 1013.26 1014.07 1014.61 1014.63 1014.81 1014.85 1014.93 1015.04 1015.02 1015.39 1016.01 1016.05 1015.86 1016.09 1016.28 1016.59 1016.78 1017.13 1017.23 1017.28 1017.50 1017.55 1017.63 1017.66
1005.93 1005.67 1005.17 1004.65 1004.68 1005.61 1006.56 1007.34 1007.62 1007.64 1007.62 1007.73 1007.91 1008.24 1008.40 1008.57 1008.74 1008.86 1009.50 1009.95 1010.23 1010.55 1011.23 1011.77 1012.36 1012.99 1013.73 1014.20 1014.45 1014.41 1014.73 1014.96 1014.77 1014.51 1014.56 1015.04 1015.54 1015.68 1015.80 1015.93 1016.21 1016.56 1016.89 1017.12 1017.19 1017.24 1017.20 1017.20 1017.35
1005.27 1005.35 1005.00 1004.94 1005.34 1006.01 1007.00 1008.18 1008.15 1007.90 1007.72 1007.69 1007.68 1007.95 1008.26 1008.19 1008.63 1009.15 1009.44 1009.66 1009.85 1010.23 1010.55 1011.01 1011.92 1012.84 1013.47 1013.97 1014.24 1014.30 1014.72 1014.90 1014.71 1014.77 1014.66 1014.46 1014.80 1015.16 1015.42 1015.50 1015.71 1016.15 1016.46 1016.66 1016.90 1017.12 1017.00 1016.96 1017.07
1005.23 1004.70 1004.94 1005.48 1006.33 1007.19 1007.64 1009.58 1009.20 1008.79 1008.04 1007.73 1007.75 1007.61 1007.70 1007.89 1008.58 1008.78 1009.37 1009.78 1009.54 1009.92 1010.85 1011.37 1011.57 1012.73 1013.71 1014.27 1014.38 1014.67 1014.55 1014.53 1014.11 1014.15 1014.33 1014.32 1014.35 1014.47 1014.73 1015.34 1015.64 1015.91 1016.07 1016.27 1016.37 1016.60 1016.79 1016.83 1016.80
1004.89 1004.65 1005.47 1006.16 1007.34 1008.24 1009.23 1009.78 1009.62 1009.23 1008.45 1008.25 1008.17 1007.99 1008.03 1008.47 1009.02 1009.40 1009.54 1009.32 1009.91 1010.48 1010.97 1011.75 1012.08 1012.05 1012.43 1012.61 1013.19 1013.91 1013.83 1014.04 1014.24 1014.12 1014.14 1014.11 1014.10 1013.80 1013.92 1014.34 1014.81 1015.31 1015.69 1015.84 1015.92 1016.09 1016.32 1016.47 1016.63
1004.76 1005.59 1006.69 1007.88 1008.98 1010.21 1010.25 1010.57 1010.54 1010.09 1009.20 1008.92 1008.72 1008.77 1008.72 1009.29 1009.55 1009.60 1009.62 1009.87 1010.42 1010.66 1011.06 1011.25 1011.82 1011.81 1011.58 1011.95 1012.38 1012.33 1012.71 1013.14 1013.67 1013.73 1013.80 1013.40 1013.48 1013.66 1013.36 1013.55 1013.90 1014.40 1014.96 1015.18 1015.25 1015.34 1015.57 1015.86 1016.14
1005.31 1006.71 1008.33 1009.89 1010.77 1011.08 1010.79 1010.82 1010.36 1009.43 1009.06 1009.00 1008.85 1009.10 1009.03 1009.60 1009.68 1009.93 1009.97 1010.29 1010.67 1010.82 1011.04 1011.52 1011.58 1011.58 1011.48 1011.49 1011.23 1011.22 1011.22 1011.62 1012.39 1013.33 1013.43 1013.44 1013.08 1013.27 1013.03 1013.10 1013.36 1013.68 1013.95 1014.24 1014.53 1014.72 1015.00 1015.26 1015.34
1005.71 1006.94 1008.76 1010.54 1012.00 1011.60 1011.06 1010.90 1010.04 1009.32 1009.24 1009.15 1008.90 1009.03 1009.10 1009.27 1009.53 1009.74 1009.89 1010.27 1010.74 1010.86 1010.95 1011.38 1011.49 1011.44 1011.24 1011.08 1010.89 1011.29 1011.69 1011.65 1011.36 1012.83 1012.94 1012.94 1012.78 1012.87 1012.71 1012.54 1012.75 1013.02 1013.44 1013.78 1014.23 1014.28 1014.14 1014.43 1014.59
1005.99 1007.28 1008.47 1010.50 1012.29 1012.19 1011.64 1010.90 1010.18 1009.62 1009.47 1009.51 1009.43 1009.37 1008.52 1008.17 1008.64 1009.07 1009.59 1010.31 1010.49 1010.75 1011.03 1011.28 1011.65 1011.55 1011.10 1010.61 1010.76 1011.12 1011.44 1010.46 1010.97 1012.06 1012.38 1012.15 1012.08 1012.27 1012.05 1011.66 1011.99 1012.11 1012.60 1013.44 1013.58 1013.86 1013.81 1013.72 1013.61
1005.35 1007.07 1008.73 1010.50 1012.33 1012.87 1012.10 1011.53 1010.68 1010.20 1009.64 1009.69 1009.45 1009.10 1008.96 1009.29 1008.98 1008.85 1008.53 1009.86 1010.32 1010.79 1011.28 1011.56 1011.69 1011.50 1011.01 1010.80 1010.78 1010.84 1010.57 1010.96 1011.26 1011.50 1011.70 1011.69 1011.49 1011.36 1011.30 1011.23 1011.34 1011.52 1012.17 1012.82 1013.18 1013.15 1013.13 1012.98 1013.04
1006.34 1007.50 1009.34 1010.93 1012.11 1012.74 1012.66 1011.54 1009.94 1009.73 1009.59 1009.47 1009.19 1009.13 1009.17 1009.19 1009.19 1009.29 1009.40 1010.38 1010.71 1010.89 1011.19 1011.58 1011.72 1011.52 1011.15 1011.06 1011.04 1010.87 1010.98 1011.17 1011.14 1011.18 1010.96 1010.79 1010.33 1010.55 1010.77 1010.72 1010.92 1011.19 1011.48 1012.05 1012.74 1012.57 1012.55 1012.54 1012.33
1006.37 1007.67 1009.05 1011.11 1012.67 1013.07 1012.62 1010.96 1009.96 1009.58 1009.51 1009.79 1009.85 1009.84 1010.03 1010.02 1010.23 1010.14 1010.59 1011.12 1011.16 1011.50 1011.79 1011.92 1011.69 1011.00 1010.82 1010.78 1010.65 1010.88 1011.23 1011.19 1010.95 1010.59 1010.45 1010.04 1009.99 1010.04 1010.10 1010.54 1010.80 1010.88 1011.07 1011.42 1011.75 1011.71 1011.65 1011.83 1012.01
Wind_Speed
7 4 2 1 5 5 2 5 2 3 3 3 4 2 7 4 2 2 4 5 13 9 9 13 17 18 18 18 18 18 18 19 18 17 16 16 16 16 16 16 17 12 12 14 13 14 15 14 16
4 5 2 1 6 4 4 2 4 3 4 7 9 6 5 5 3 10 6 8 11 10 7 11 17 18 19 18 18 18 19 19 17 17 16 16 17 16 16 17 17 14 13 14 14 13 14 14 14
4 2 4 5 3 3 2 1 3 1 1 3 5 6 4 3 10 8 11 12 11 9 6 12 17 18 19 19 18 18 18 19 18 17 17 17 17 17 16 16 17 15 14 13 13 13 12 13 12
0 4 5 6 3 2 1 4 1 1 4 8 5 7 5 7 7 5 13 12 10 7 6 15 18 18 18 18 18 18 17 18 17 17 16 16 17 18 17 16 15 16 14 13 12 12 12 12 10
1 4 5 4 5 4 1 1 1 3 4 6 3 5 5 3 12 15 13 11 10 7 6 11 16 17 17 17 17 17 17 17 16 16 16 16 15 17 15 16 14 13 12 12 12 12 9 9 7
4 3 5 2 3 3 5 4 3 4 4 5 8 5 2 8 15 11 10 9 9 10 7 8 15 16 16 17 17 16 17 16 15 15 16 14 15 15 16 14 16 12 11 10 10 9 8 7 6
2 4 1 2 3 3 3 3 6 5 5 3 7 6 3 9 10 11 10 8 8 6 7 6 7 11 16 15 16 16 15 15 15 14 15 15 13 15 15 14 13 13 10 8 7 7 7 4 2
3 3 2 3 3 3 2 2 4 4 3 5 8 6 7 10 13 10 9 8 7 5 5 6 5 6 6 7 15 15 15 15 14 13 13 16 15 12 10 11 11 11 10 8 5 5 4 4 1
3 4 1 3 4 3 5 3 3 4 8 2 3 5 10 17 14 11 9 7 6 6 5 5 6 5 5 6 10 15 15 13 13 11 11 8 4 5 5 6 10 9 9 8 6 3 2 3 2
4 4 7 6 5 4 6 4 7 4 5 5 10 14 18 17 14 14 14 14 13 10 7 6 5 5 5 6 5 6 6 4 3 4 4 3 3 1 3 7 9 9 8 8 6 3 3 3 1
4 6 5 4 4 4 6 4 1 9 2 5 13 15 18 16 12 12 11 12 14 11 8 8 6 5 7 5 3 2 2 3 2 5 4 3 2 2 1 1 2 1 7 2 1 1 1 2 2
3 8 6 3 7 4 8 6 4 2 2 12 18 21 17 16 15 14 13 11 10 10 10 9 8 6 7 3 3 3 4 5 5 3 5 4 3 3 3 2 2 2 1 2 2 1 2 4 3
4 5 3 0 9 6 5 4 3 2 9 16 15 16 17 16 14 10 9 8 8 9 10 10 9 8 7 4 3 3 5 3 3 4 3 3 3 3 2 2 2 2 2 2 3 3 3 4 4
2 5 0 4 7 5 4 2 2 3 14 15 18 16 14 15 16 11 11 11 12 10 10 9 10 9 7 7 5 5 3 2 4 3 4 4 3 4 3 3 3 3 3 2 3 3 3 4 4
4 5 1 3 6 4 7 0 5 6 13 16 14 15 14 12 11 17 17 15 13 11 10 11 11 8 7 7 5 4 3 3 3 4 5 6 5 5 5 3 3 4 3 4 4 4 3 4 4
1 6 2 4 8 2 6 8 6 11 13 12 14 13 13 16 15 12 12 13 13 11 13 11 10 11 9 8 4 2 3 3 3 4 3 5 6 6 5 4 4 3 3 3 4 4 4 4 4
7 2 2 6 8 6 4 7 5 11 12 10 12 13 12 12 13 12 12 12 12 12 11 11 12 12 10 6 3 4 4 4 2 3 4 6 7 8 6 4 3 4 3 3 4 4 4 3 4
5 4 4 5 7 3 6 8 3 9 13 14 11 10 12 13 17 14 12 10 9 9 10 10 10 8 7 5 5 3 3 4 3 4 5 7 6 8 7 4 4 4 3 4 4 5 4 4 3
5 3 6 6 5 5 7 5 5 10 10 9 10 9 10 14 9 9 12 11 11 9 9 10 10 8 8 4 3 3 5 3 3 4 5 5 5 8 6 4 4 4 4 5 5 4 5 4 3
5 2 5 2 4 6 5 2 1 6 10 9 10 10 10 7 6 8 10 11 12 12 11 10 10 8 7 5 2 2 2 2 2 2 4 7 7 6 5 6 5 5 3 5 5 5 2 2 4
3 2 2 3 2 5 7 7 7 4 3 6 8 6 7 9 7 5 8 10 8 10 12 11 8 6 6 5 3 2 1 2 1 2 5 6 8 8 8 7 5 5 5 4 5 4 5 3 2
1 6 3 5 4 3 5 3 4 5 8 5 6 10 9 9 5 4 5 7 9 9 5 5 7 7 5 4 3 4 4 5 3 3 3 3 6 7 7 6 6 5 4 5 5 5 5 3 3
9 1 3 3 5 4 8 6 7 6 6 4 6 5 3 5 6 6 4 6 1 6 6 4 6 8 8 7 6 2 4 4 2 3 4 4 4 6 7 8 7 7 6 7 8 6 6 4 3
3 4 8 6 4 4 4 5 6 4 4 5 3 5 5 8 8 7 4 6 6 4 5 8 10 8 10 8 7 10 9 4 4 7 5 4 3 4 8 8 8 8 8 9 7 7 7 6 5
5 8 5 6 6 5 1 2 7 6 4 4 6 6 5 7 7 6 6 5 4 2 4 7 11 9 9 9 12 12 10 8 4 6 7 5 4 4 8 9 8 8 9 9 8 7 7 6 7
2 7 8 5 3 4 2 1 5 5 5 4 3 5 6 9 10 8 6 6 4 5 3 9 9 8 7 6 7 4 5 1 5 5 7 9 6 7 5 8 8 10 8 9 8 6 6 7 7
3 2 4 10 3 3 3 3 6 5 6 4 5 5 10 14 16 11 7 3 5 2 5 8 7 5 8 8 4 6 8 5 2 8 10 9 10 7 8 8 10 10 11 9 9 6 8 9 10
3 6 4 4 4 3 5 4 6 6 8 6 8 9 7 9 10 10 13 9 8 4 5 5 6 9 8 6 4 5 6 4 3 7 12 12 10 7 8 9 10 10 8 8 8 7 8 9 6
2 3 8 7 4 6 2 7 6 8 8 10 9 6 4 6 9 9 11 6 7 7 1 4 6 7 5 4 2 2 4 5 7 11 14 12 5 6 8 9 9 9 9 8 8 8 8 9 7
3 4 5 7 3 2 3 7 3 7 7 1 6 5 5 6 6 8 9 6 7 6 3 4 8 5 5 4 3 2 3 8 10 10 8 5 6 5 7 7 9 9 8 5 8 8 8 9 9
Wind_Direction
139 142 165 2 51 64 63 337 238 351 42 348 89 145 121 48 47 159 132 143 128 128 139 133 134 127 125 122 120 121 124 125 124 126 128 128 125 122 120 119 113 114 112 111 113 112 108 104 106
146 173 73 80 70 47 308 320 13 47 136 136 107 116 52 76 64 118 123 142 128 128 128 134 132 131 131 128 128 129 131 129 128 127 124 123 122 121 119 119 117 118 117 109 105 100 104 111 109
162 77 76 86 105 146 226 37 11 102 146 72 105 59 67 58 106 134 121 133 127 126 120 138 136 135 136 135 133 134 136 136 133 132 133 133 129 124 119 119 120 122 123 121 110 114 110 103 110
124 13 33 65 348 300 189 9 115 62 65 64 105 64 76 105 126 119 133 129 126 122 119 139 141 140 141 141 138 140 136 135 137 135 135 132 130 125 125 124 126 128 129 122 113 109 113 119 125
13 74 55 49 308 289 233 241 7 29 76 22 67 80 91 117 111 127 131 131 132 126 128 142 147 148 149 150 149 146 144 143 141 138 136 137 132 125 125 125 119 119 118 116 116 119 123 126 128
18 60 42 17 270 281 310 211 9 61 74 120 85 96 69 128 131 132 133 131 139 138 139 152 155 155 156 158 153 149 151 150 151 148 143 144 139 134 133 132 129 129 124 122 123 125 120 118 120
97 75 201 308 295 324 267 103 141 124 133 99 130 88 116 141 137 138 133 127 141 139 137 145 156 166 165 161 160 159 159 158 159 156 152 142 151 144 145 142 142 139 136 137 136 132 127 119 152
109 84 10 267 205 271 172 67 118 119 75 104 141 148 168 163 145 126 130 131 144 148 146 155 158 168 164 164 168 166 170 167 167 163 163 156 156 146 148 151 156 152 150 152 150 152 148 153 201
115 59 242 246 158 207 170 138 125 111 133 91 102 124 138 143 138 130 139 146 156 173 172 167 165 168 161 162 179 177 176 182 177 173 178 173 58 102 272 182 172 172 166 171 167 165 187 235 264
109 134 217 209 179 185 179 142 163 106 131 60 77 102 126 143 150 156 167 174 180 182 192 181 173 170 167 183 193 166 179 177 166 160 204 150 136 172 204 186 199 189 189 187 191 197 237 324 1
180 217 186 249 173 142 142 142 95 115 250 163 152 141 147 151 162 172 177 183 187 186 190 190 184 179 180 188 182 193 179 138 194 180 183 128 171 183 172 251 300 344 211 201 192 350 341 296 298
165 255 175 243 139 114 162 117 108 154 214 142 156 150 153 163 177 181 187 186 184 191 192 190 192 187 199 183 189 188 191 173 199 171 170 158 179 206 209 196 241 252 238 235 225 249 263 276 289
173 290 171 116 122 152 119 83 126 112 106 129 136 151 170 178 184 187 187 186 184 195 199 194 191 197 200 193 198 190 209 194 162 163 173 175 183 196 198 230 191 225 242 223 234 246 258 269 282
264 191 90 135 146 123 90 65 29 118 128 140 152 168 183 189 185 178 187 193 193 196 203 195 198 197 193 202 208 210 189 169 150 184 179 200 193 201 201 209 213 219 224 247 241 243 251 261 270
325 105 14 163 176 142 133 128 228 137 144 154 173 174 186 207 195 194 191 194 191 193 192 202 198 192 194 203 205 201 200 170 191 194 194 193 202 209 212 207 214 209 217 234 245 250 257 263 272
95 58 123 248 134 228 114 265 219 154 151 170 180 182 190 204 214 214 207 199 192 192 193 186 198 195 196 203 196 191 217 213 196 174 210 201 199 211 211 211 227 211 193 215 247 251 256 258 260
8 113 212 297 182 133 137 258 217 165 164 181 191 191 194 211 218 217 216 206 196 189 193 196 195 196 192 171 199 196 210 224 198 168 207 210 204 213 210 207 206 198 228 204 228 250 228 243 255
295 336 294 218 196 166 169 254 154 185 181 189 198 198 198 209 220 210 206 204 197 195 196 199 200 194 150 136 177 172 196 227 190 205 212 203 206 208 205 206 203 203 223 225 215 230 228 234 243
251 190 223 266 200 129 190 256 249 194 199 200 204 208 208 216 217 199 205 197 190 183 190 197 191 182 148 159 206 204 230 192 195 203 223 210 220 206 202 180 197 210 222 240 210 212 214 235 214
232 274 290 294 101 101 174 207 300 200 228 223 206 214 222 234 198 189 180 186 196 191 192 189 200 171 172 174 196 192 118 255 242 206 197 187 203 214 191 196 194 190 218 238 244 222 181 206 188
339 200 281 110 67 66 107 347 346 0 191 216 215 215 209 226 220 165 171 184 190 192 188 189 181 165 164 160 124 109 72 282 299 256 256 226 186 191 208 203 203 197 189 208 211 228 218 203 199
267 199 153 106 78 204 42 233 301 317 289 259 250 217 203 213 163 184 145 189 202 198 149 165 141 115 102 136 173 209 232 242 211 192 235 229 197 190 190 198 208 214 207 226 226 208 224 191 211
231 136 77 59 79 74 357 82 269 347 305 338 338 292 168 102 71 79 153 208 84 117 172 121 117 116 136 153 136 185 230 238 271 249 237 219 214 201 198 201 195 204 205 224 221 207 207 198 223
123 85 45 56 75 41 282 118 299 269 273 318 14 41 77 82 79 84 77 61 59 54 142 144 134 146 164 151 145 168 197 193 279 273 256 220 200 227 210 205 207 213 211 217 217 212 204 202 206
78 55 357 12 16 215 133 62 226 269 267 239 306 42 73 86 83 63 41 17 76 110 107 143 158 172 188 177 202 212 190 166 172 282 284 278 223 219 226 198 195 210 218 214 200 198 206 201 209
100 146 152 175 199 262 289 222 253 255 318 299 11 127 136 122 106 88 59 33 335 231 171 158 170 178 218 214 235 183 157 131 115 281 277 272 245 243 200 203 196 202 208 209 208 214 198 194 212
178 129 162 104 354 51 282 282 318 325 303 318 253 247 185 165 128 113 128 138 66 72 151 156 173 191 234 254 275 192 190 135 106 272 269 257 254 237 214 195 195 198 202 203 198 210 214 211 206
129 151 75 16 133 221 303 279 239 229 247 245 247 233 281 60 88 78 69 22 21 71 155 173 195 210 234 283 11 326 352 351 298 301 279 251 233 204 200 195 201 205 189 196 201 210 224 219 210
51 50 55 110 104 153 178 268 222 227 209 217 237 217 234 75 60 80 72 26 39 16 2 242 232 226 242 260 203 274 295 279 271 269 262 238 218 191 199 200 199 210 211 196 208 211 223 230 219
103 118 117 117 217 52 138 271 346 268 210 115 282 318 349 58 68 70 77 50 359 357 5 238 234 243 254 265 282 306 274 269 271 266 259 253 227 197 206 211 206 214 222 207 222 221 219 225 219